| time (UTC) | temp F | wind direction | speed MPH | gust MPH | rain 1hr in | rain 24hr in | rain mn in | humidity % | barometer mb |
| 20260902023314 | 69 | 245 | 1.0 | 7.0 | 0.00 | 0.00 | 0.00 | 56 | 1008.1 |
| 20260902022313 | 69 | 299 | 0.0 | 4.0 | 0.00 | 0.00 | 0.00 | 56 | 1007.9 |
| 20260902021333 | 70 | 326 | 1.0 | 6.0 | 0.00 | 0.00 | 0.00 | 55 | 1007.8 |
| 20260902020330 | 70 | 309 | 0.0 | 3.0 | 0.00 | 0.00 | 0.00 | 55 | 1007.8 |
| 20260902015329 | 71 | 291 | 0.0 | 6.0 | 0.00 | 0.00 | 0.00 | 54 | 1007.9 |
| 20260902014327 | 71 | 267 | 0.0 | 6.0 | 0.00 | 0.00 | 0.00 | 53 | 1007.8 |
| 20260902013327 | 72 | 300 | 0.0 | 8.0 | 0.00 | 0.00 | 0.00 | 53 | 1007.8 |
| 20260902012325 | 72 | 294 | 0.0 | 8.0 | 0.00 | 0.00 | 0.00 | 52 | 1007.8 |
| 20260902011344 | 72 | 265 | 1.0 | 6.0 | 0.00 | 0.00 | 0.00 | 52 | 1007.7 |
| 20260902010323 | 72 | 305 | 1.0 | 9.0 | 0.00 | 0.00 | 0.00 | 51 | 1007.7 |
| 20260902005320 | 72 | 262 | 2.0 | 10.0 | 0.00 | 0.00 | 0.00 | 51 | 1007.7 |
| 20260902004340 | 73 | 187 | 3.0 | 5.0 | 0.00 | 0.00 | 0.00 | 51 | 1007.6 |
| 20260902003317 | 72 | 341 | 1.0 | 8.0 | 0.00 | 0.00 | 0.00 | 51 | 1007.6 |
| 20260902002317 | 72 | 217 | 1.0 | 7.0 | 0.00 | 0.00 | 0.00 | 51 | 1007.6 |
| 20260902001317 | 73 | 227 | 4.0 | 10.0 | 0.00 | 0.00 | 0.00 | 49 | 1007.6 |
| 20260902000322 | 74 | 275 | 2.0 | 8.0 | 0.00 | 0.00 | 0.00 | 49 | 1007.6 |
| 20260901235319 | 73 | 299 | 0.0 | 4.0 | 0.00 | 0.00 | 0.00 | 52 | 1007.5 |
| 20260901234315 | 73 | 318 | 2.0 | 7.0 | 0.00 | 0.00 | 0.00 | 53 | 1007.7 |
| 20260901233314 | 73 | 236 | 1.0 | 8.0 | 0.00 | 0.00 | 0.00 | 53 | 1007.7 |
| 20260901232312 | 73 | 270 | 4.0 | 11.0 | 0.00 | 0.00 | 0.00 | 52 | 1007.5 |
| 20260901231329 | 74 | 254 | 4.0 | 12.0 | 0.00 | 0.00 | 0.00 | 51 | 1007.4 |
| 20260901230330 | 74 | 246 | 3.0 | 11.0 | 0.00 | 0.00 | 0.00 | 49 | 1007.4 |
| 20260901225328 | 75 | 247 | 4.0 | 8.0 | 0.00 | 0.00 | 0.00 | 49 | 1007.4 |
| 20260901224326 | 74 | 261 | 3.0 | 7.0 | 0.00 | 0.00 | 0.00 | 48 | 1007.4 |
| 20260901223326 | 74 | 200 | 1.0 | 10.0 | 0.00 | 0.00 | 0.00 | 49 | 1007.4 |
| 20260901222325 | 75 | 237 | 3.0 | 9.0 | 0.00 | 0.00 | 0.00 | 47 | 1007.4 |
| 20260901221325 | 76 | 309 | 2.0 | 9.0 | 0.00 | 0.00 | 0.00 | 46 | 1007.7 |
| 20260901220325 | 76 | 294 | 3.0 | 12.0 | 0.00 | 0.00 | 0.00 | 46 | 1007.7 |
| 20260901215345 | 75 | 290 | 2.0 | 7.0 | 0.00 | 0.00 | 0.00 | 48 | 1007.7 |
| 20260901214323 | 75 | 355 | 1.0 | 6.0 | 0.00 | 0.00 | 0.00 | 48 | 1007.6 |
| 20260901213322 | 75 | 272 | 1.0 | 7.0 | 0.00 | 0.00 | 0.00 | 47 | 1007.6 |
| 20260901212320 | 76 | 236 | 0.0 | 14.0 | 0.00 | 0.00 | 0.00 | 46 | 1007.7 |
| 20260901211320 | 75 | 61 | 0.0 | 3.0 | 0.00 | 0.00 | 0.00 | 48 | 1007.8 |
| 20260901210321 | 74 | 360 | 1.0 | 5.0 | 0.00 | 0.00 | 0.00 | 49 | 1007.8 |
| 20260901205323 | 74 | 302 | 3.0 | 8.0 | 0.00 | 0.00 | 0.00 | 48 | 1007.9 |
| 20260901204323 | 74 | 348 | 3.0 | 8.0 | 0.00 | 0.00 | 0.00 | 50 | 1008.1 |
| 20260901203322 | 74 | 307 | 4.0 | 8.0 | 0.00 | 0.00 | 0.00 | 49 | 1008.1 |
| 20260901202338 | 73 | 295 | 1.0 | 6.0 | 0.00 | 0.00 | 0.00 | 51 | 1008.3 |
| 20260901201318 | 73 | 329 | 2.0 | 8.0 | 0.00 | 0.00 | 0.00 | 51 | 1008.3 |
| 20260901200318 | 72 | 327 | 2.0 | 9.0 | 0.00 | 0.00 | 0.00 | 53 | 1008.3 |
| 20260901195316 | 72 | 227 | 3.0 | 6.0 | 0.00 | 0.00 | 0.00 | 52 | 1008.5 |
| 20260901194315 | 72 | 325 | 1.0 | 8.0 | 0.00 | 0.00 | 0.00 | 52 | 1008.8 |
| 20260901193313 | 71 | 266 | 0.0 | 4.0 | 0.00 | 0.00 | 0.00 | 53 | 1008.8 |
| 20260901192330 | 70 | 239 | 3.0 | 6.0 | 0.00 | 0.00 | 0.00 | 54 | 1009.0 |
| 20260901191330 | 69 | 265 | 2.0 | 5.0 | 0.00 | 0.00 | 0.00 | 55 | 1009.2 |
| 20260901190332 | 68 | 261 | 1.0 | 6.0 | 0.00 | 0.00 | 0.00 | 57 | 1009.2 |
| 20260901185330 | 68 | 291 | 1.0 | 5.0 | 0.00 | 0.00 | 0.00 | 57 | 1009.2 |
| 20260901184330 | 68 | 189 | 0.0 | 3.0 | 0.00 | 0.00 | 0.00 | 56 | 1009.2 |
| 20260901183349 | 68 | 123 | 0.0 | 4.0 | 0.00 | 0.00 | 0.00 | 58 | 1009.2 |
| 20260901182327 | 69 | 153 | 1.0 | 8.0 | 0.00 | 0.00 | 0.00 | 57 | 1009.3 |
| 20260901181325 | 69 | 256 | 2.0 | 6.0 | 0.00 | 0.00 | 0.00 | 56 | 1009.3 |
| 20260901180329 | 68 | 144 | 0.0 | 7.0 | 0.00 | 0.00 | 0.00 | 59 | 1009.3 |
| 20260901175326 | 67 | 134 | 1.0 | 7.0 | 0.00 | 0.00 | 0.00 | 61 | 1009.3 |
| 20260901174347 | 66 | 55 | 1.0 | 4.0 | 0.00 | 0.00 | 0.00 | 63 | 1009.3 |
| 20260901173328 | 66 | 122 | 1.0 | 4.0 | 0.00 | 0.00 | 0.00 | 65 | 1009.3 |
| 20260901172325 | 65 | 106 | 0.0 | 3.0 | 0.00 | 0.00 | 0.00 | 67 | 1009.3 |
| 20260901171325 | 64 | 132 | 0.0 | 1.0 | 0.00 | 0.00 | 0.00 | 70 | 1009.4 |
| 20260901170326 | 63 | 133 | 0.0 | 1.0 | 0.00 | 0.00 | 0.00 | 71 | 1009.4 |
| 20260901165327 | 62 | 164 | 0.0 | 0.0 | 0.00 | 0.00 | 0.00 | 72 | 1009.5 |
| 20260901164327 | 62 | 200 | 0.0 | 0.0 | 0.00 | 0.00 | 0.00 | 74 | 1009.7 |
| 20260901163325 | 61 | 200 | 0.0 | 0.0 | 0.00 | 0.00 | 0.00 | 75 | 1009.7 |
| 20260901162322 | 61 | 200 | 0.0 | 0.0 | 0.00 | 0.00 | 0.00 | 76 | 1009.8 |
| 20260901161322 | 60 | 200 | 0.0 | 1.0 | 0.00 | 0.00 | 0.00 | 77 | 1009.6 |
| 20260901160344 | 60 | 200 | 0.0 | 0.0 | 0.00 | 0.00 | 0.00 | 78 | 1009.6 |
| 20260901155322 | 60 | 200 | 0.0 | 0.0 | 0.00 | 0.00 | 0.00 | 78 | 1009.8 |
| 20260901154320 | 60 | 200 | 0.0 | 1.0 | 0.00 | 0.00 | 0.00 | 78 | 1009.6 |
| 20260901153320 | 60 | 308 | 0.0 | 0.0 | 0.00 | 0.00 | 0.00 | 79 | 1009.6 |
| 20260901152322 | 59 | 308 | 0.0 | 0.0 | 0.00 | 0.00 | 0.00 | 80 | 1009.5 |
| 20260901151320 | 59 | 308 | 0.0 | 0.0 | 0.00 | 0.00 | 0.00 | 80 | 1009.5 |
| 20260901150320 | 59 | 308 | 0.0 | 0.0 | 0.00 | 0.00 | 0.00 | 80 | 1009.5 |
| 20260901145320 | 58 | 308 | 0.0 | 0.0 | 0.00 | 0.00 | 0.00 | 80 | 1009.3 |
| 20260901144337 | 58 | 308 | 0.0 | 0.0 | 0.00 | 0.00 | 0.00 | 81 | 1009.3 |
| 20260901143316 | 58 | 308 | 0.0 | 0.0 | 0.00 | 0.00 | 0.00 | 81 | 1009.3 |
| 20260901142315 | 58 | 308 | 0.0 | 0.0 | 0.00 | 0.00 | 0.00 | 82 | 1009.1 |
| 20260901141314 | 58 | 308 | 0.0 | 0.0 | 0.00 | 0.00 | 0.00 | 82 | 1009.2 |
| 20260901140313 | 58 | 308 | 0.0 | 0.0 | 0.00 | 0.00 | 0.00 | 82 | 1009.2 |
| 20260901135312 | 58 | 308 | 0.0 | 0.0 | 0.00 | 0.00 | 0.00 | 82 | 1009.0 |
| 20260901134331 | 58 | 317 | 0.0 | 1.0 | 0.00 | 0.00 | 0.00 | 81 | 1008.8 |
| 20260901133329 | 58 | 317 | 0.0 | 1.0 | 0.00 | 0.00 | 0.00 | 81 | 1008.8 |
| 20260901132328 | 58 | 317 | 0.0 | 0.0 | 0.00 | 0.00 | 0.00 | 81 | 1008.8 |
| 20260901131324 | 58 | 317 | 0.0 | 0.0 | 0.00 | 0.00 | 0.00 | 81 | 1008.8 |
| 20260901130345 | 58 | 317 | 0.0 | 0.0 | 0.00 | 0.00 | 0.00 | 82 | 1008.8 |
| 20260901125321 | 58 | 317 | 0.0 | 0.0 | 0.00 | 0.00 | 0.00 | 82 | 1008.8 |
| 20260901124320 | 58 | 317 | 0.0 | 0.0 | 0.00 | 0.00 | 0.00 | 83 | 1008.8 |
| 20260901123339 | 57 | 317 | 0.0 | 0.0 | 0.00 | 0.00 | 0.00 | 83 | 1008.8 |
| 20260901122323 | 57 | 317 | 0.0 | 0.0 | 0.00 | 0.00 | 0.00 | 83 | 1008.8 |
| 20260901121322 | 57 | 317 | 0.0 | 0.0 | 0.00 | 0.00 | 0.00 | 84 | 1008.8 |
| 20260901120321 | 57 | 317 | 0.0 | 0.0 | 0.00 | 0.00 | 0.00 | 84 | 1008.8 |
| 20260901115320 | 57 | 317 | 0.0 | 0.0 | 0.00 | 0.00 | 0.00 | 85 | 1008.8 |
| 20260901114319 | 56 | 317 | 0.0 | 0.0 | 0.00 | 0.00 | 0.00 | 86 | 1008.8 |
| 20260901113319 | 56 | 317 | 0.0 | 0.0 | 0.00 | 0.00 | 0.00 | 87 | 1008.8 |
| 20260901112317 | 56 | 317 | 0.0 | 0.0 | 0.00 | 0.00 | 0.00 | 88 | 1008.8 |
| 20260901111315 | 55 | 317 | 0.0 | 0.0 | 0.00 | 0.00 | 0.00 | 90 | 1008.8 |
| 20260901110316 | 55 | 317 | 0.0 | 0.0 | 0.00 | 0.00 | 0.00 | 91 | 1008.8 |
| 20260901105312 | 54 | 317 | 0.0 | 0.0 | 0.00 | 0.00 | 0.00 | 92 | 1008.8 |
| 20260901104313 | 54 | 317 | 0.0 | 0.0 | 0.00 | 0.00 | 0.00 | 92 | 1008.7 |
| 20260901103333 | 54 | 317 | 0.0 | 0.0 | 0.00 | 0.00 | 0.00 | 92 | 1008.7 |
| 20260901102311 | 53 | 317 | 0.0 | 0.0 | 0.00 | 0.00 | 0.00 | 91 | 1008.7 |
| 20260901101330 | 53 | 317 | 0.0 | 0.0 | 0.00 | 0.00 | 0.00 | 91 | 1008.8 |
| 20260901100328 | 54 | 317 | 0.0 | 0.0 | 0.00 | 0.00 | 0.00 | 91 | 1008.8 |
| 20260901095348 | 54 | 317 | 0.0 | 0.0 | 0.00 | 0.00 | 0.00 | 91 | 1008.7 |
| 20260901094345 | 54 | 317 | 0.0 | 0.0 | 0.00 | 0.00 | 0.00 | 91 | 1008.8 |
| 20260901093324 | 54 | 317 | 0.0 | 0.0 | 0.00 | 0.00 | 0.00 | 91 | 1008.8 |
| 20260901092327 | 54 | 317 | 0.0 | 0.0 | 0.00 | 0.00 | 0.00 | 90 | 1008.6 |
| 20260901091325 | 54 | 317 | 0.0 | 0.0 | 0.00 | 0.00 | 0.00 | 90 | 1008.6 |
| 20260901090324 | 55 | 317 | 0.0 | 0.0 | 0.00 | 0.00 | 0.00 | 89 | 1008.6 |
| 20260901085323 | 55 | 317 | 0.0 | 0.0 | 0.00 | 0.00 | 0.00 | 89 | 1008.7 |
| 20260901084322 | 55 | 317 | 0.0 | 0.0 | 0.00 | 0.00 | 0.00 | 88 | 1008.7 |
| 20260901083323 | 55 | 317 | 0.0 | 0.0 | 0.00 | 0.00 | 0.00 | 87 | 1008.7 |
| 20260901082320 | 56 | 317 | 0.0 | 0.0 | 0.00 | 0.00 | 0.00 | 87 | 1008.8 |
| 20260901081319 | 56 | 317 | 0.0 | 0.0 | 0.00 | 0.00 | 0.00 | 86 | 1008.7 |
| 20260901080318 | 56 | 317 | 0.0 | 0.0 | 0.00 | 0.00 | 0.00 | 85 | 1008.7 |
| 20260901075316 | 57 | 317 | 0.0 | 0.0 | 0.00 | 0.00 | 0.00 | 83 | 1008.7 |
| 20260901074315 | 57 | 317 | 0.0 | 0.0 | 0.00 | 0.00 | 0.00 | 83 | 1008.7 |
| 20260901073315 | 58 | 317 | 0.0 | 0.0 | 0.00 | 0.00 | 0.00 | 81 | 1008.7 |
| 20260901072334 | 58 | 317 | 0.0 | 0.0 | 0.00 | 0.00 | 0.00 | 81 | 1008.5 |
| 20260901071352 | 58 | 317 | 0.0 | 0.0 | 0.00 | 0.00 | 0.00 | 80 | 1008.5 |
| 20260901070330 | 59 | 317 | 0.0 | 0.0 | 0.00 | 0.00 | 0.00 | 78 | 1008.5 |
| 20260901065348 | 59 | 317 | 0.0 | 0.0 | 0.00 | 0.00 | 0.00 | 78 | 1008.4 |
| 20260901064348 | 59 | 317 | 0.0 | 0.0 | 0.00 | 0.00 | 0.00 | 77 | 1008.4 |
| 20260901063325 | 59 | 317 | 0.0 | 0.0 | 0.00 | 0.00 | 0.00 | 77 | 1008.4 |
| 20260901062324 | 60 | 317 | 0.0 | 0.0 | 0.00 | 0.00 | 0.00 | 76 | 1008.6 |
| 20260901061323 | 60 | 317 | 0.0 | 0.0 | 0.00 | 0.00 | 0.00 | 75 | 1008.5 |
| 20260901060327 | 60 | 317 | 0.0 | 0.0 | 0.00 | 0.00 | 0.00 | 75 | 1008.5 |
| 20260901055325 | 61 | 317 | 0.0 | 0.0 | 0.00 | 0.00 | 0.00 | 74 | 1008.4 |
| 20260901054324 | 61 | 317 | 0.0 | 0.0 | 0.00 | 0.00 | 0.00 | 73 | 1008.3 |
| 20260901053323 | 61 | 317 | 0.0 | 2.0 | 0.00 | 0.00 | 0.00 | 72 | 1008.3 |
| 20260901052322 | 62 | 317 | 0.0 | 0.0 | 0.00 | 0.00 | 0.00 | 72 | 1008.4 |
| 20260901051317 | 62 | 315 | 0.0 | 0.0 | 0.00 | 0.00 | 0.00 | 70 | 1008.3 |
| 20260901050316 | 63 | 315 | 0.0 | 0.0 | 0.00 | 0.00 | 0.00 | 67 | 1008.3 |
| 20260901045317 | 63 | 315 | 0.0 | 0.0 | 0.00 | 0.00 | 0.00 | 67 | 1008.2 |
| 20260901044316 | 64 | 316 | 0.0 | 5.0 | 0.00 | 0.00 | 0.00 | 67 | 1007.8 |
| 20260901043316 | 64 | 317 | 0.0 | 3.0 | 0.00 | 0.00 | 0.00 | 67 | 1007.8 |
| 20260901042315 | 65 | 317 | 0.0 | 2.0 | 0.00 | 0.00 | 0.00 | 65 | 1007.7 |
| 20260901041313 | 65 | 317 | 0.0 | 3.0 | 0.00 | 0.00 | 0.00 | 65 | 1007.3 |
| 20260901040312 | 66 | 341 | 0.0 | 6.0 | 0.00 | 0.00 | 0.00 | 64 | 1007.3 |
| 20260901035311 | 66 | 301 | 1.0 | 7.0 | 0.00 | 0.00 | 0.00 | 62 | 1007.1 |
| 20260901034313 | 67 | 342 | 1.0 | 7.0 | 0.00 | 0.00 | 0.00 | 61 | 1006.7 |
| 20260901033314 | 68 | 323 | 1.0 | 5.0 | 0.00 | 0.00 | 0.00 | 59 | 1006.7 |
| 20260901032313 | 68 | 309 | 1.0 | 6.0 | 0.00 | 0.00 | 0.00 | 57 | 1006.4 |
| 20260901031312 | 69 | 286 | 1.0 | 7.0 | 0.00 | 0.00 | 0.00 | 54 | 1006.2 |
| 20260901030311 | 70 | 315 | 1.0 | 8.0 | 0.00 | 0.00 | 0.00 | 53 | 1006.2 |
| 20260901025311 | 71 | 300 | 1.0 | 9.0 | 0.00 | 0.00 | 0.00 | 51 | 1006.1 |
| 20260901024330 | 72 | 5 | 1.0 | 8.0 | 0.00 | 0.00 | 0.00 | 49 | 1005.7 |